Location: ?????
(37.7324°N, 23.9257°E)
Time: 22:30:39
(UTC+00:00)

COSMO-SKYMED 1 - Pass Details

Date: 29 November 2020
Orbit: 621 x 623 km, 97.9° (Epoch: 19 January)

Event Time Altitude Azimuth Distance (km) Brightness Sun altitude
Rises 03:20:26 0° 155° (SSE) 2,888 6.5 -23.0°
Reaches altitude 10° 03:22:39 10° 151° (SSE) 1,986 5.6 -22.6°
Maximum altitude 03:26:52 54° 74° (ENE) 759 3.2 -21.8°
Drops below altitude 10° 03:31:06 10° 357° (N) 2,001 5.0 -20.9°
Enters shadow 03:31:21 - 357° (N) 2,099 5.1 -20.9°
